Tracking 19817 objects as of 19-Aug-2019
HD Live streaming from Space Station
objects crossing your sky now

COSMOS 2251 DEB

Track COSMOS 2251 DEB now!
10-day predictions


NORAD ID: 36454
Int'l Code: 1993-036BBD
Perigee: 635.2 km
Apogee: 655.9 km
Inclination: 74.0 °
Period: 97.5 minutes
Semi major axis: 7016 km
RCS: 0.003 m2 (small)
Launch date: June 16, 1993
Source: Commonwealth of Independent States (former USSR) (CIS)
Launch site: PLESETSK MISSILE AND SPACE COMPLEX (PKMTR)

Note: This is SATELLITE DEBRIS
aabbcc
Your satellite tracking list
Your tracking list is empty




NASA's NSSDC Master Catalog

Two Line Element Set (TLE):
1 36454U 93036BBD 19230.45370347 +.00001426 +00000-0 +20619-3 0  9995
2 36454 074.0052 272.9560 0014717 342.7264 017.3408 14.77130948383361
Source of the keplerian elements: AFSPC